Powrót do katalogu

STARLINK-37548

AktywnyŁącznośćSSO
NORAD 69027·PAYLOAD·🇺🇸 United States

Wystrzelony May 6, 2026 z Vandenberg Space Force Base

Loading…

Następne Przeloty (najbliższe 24 godziny)

TLE

ŚwieżeSource: CelesTrak SupGP

Epoka: Sep 14, 2026, 15:22 UTC

1 69027C 26101C   26257.64076389 -.00032227  00000+0 -10009-2 0  2575
2 69027  97.2847 111.1889 0002051  88.1778 127.9279 15.33437810    12

Śledź STARLINK-37548 w czasie rzeczywistym z AllMySat

Download on the App Store